Location: Stuttgart
(48.7824°N, 9.1964°E)
Time: 11:35:56
(UTC+01:00)

ISS - Pass Details

Date: 29 January 2019
Orbit: 403 x 411 km, 51.6° (Epoch: 18 February)

Event Time Altitude Azimuth Distance (km) Brightness Sun altitude
Rises 19:51:50 0° 279° (W) 2,338 1.4 -25.7°
Reaches altitude 10° 19:53:58 10° 285° (WNW) 1,478 0.0 -26.0°
Enters shadow 19:55:29 24° 297° (WNW) 907 -1.5 -26.3°
